| time (UTC) | temp F | wind direction | speed MPH | gust MPH | rain 1hr in | rain 24hr in | rain mn in | humidity % | barometer mb |
| 20260904201508 | 78 | 86 | 2.0 | 2.0 | 0.00 | 0.00 | 0.00 | 11 | 991.6 |
| 20260904195005 | 75 | 81 | 2.0 | 3.0 | 0.00 | 0.00 | 0.00 | 12 | 991.9 |
| 20260904180005 | 77 | 166 | 1.0 | 3.0 | 0.00 | 0.00 | 0.00 | 12 | 992.7 |
| 20260904164508 | 69 | 162 | 2.0 | 2.0 | 0.00 | 0.00 | 0.00 | 21 | 992.2 |
| 20260904150509 | 71 | 85 | 3.0 | 4.0 | 0.00 | 0.00 | 0.00 | 16 | 991.1 |
| 20260904054504 | 61 | 171 | 7.0 | 9.0 | 0.00 | 0.00 | 0.00 | 37 | 989.9 |
| 20260904053009 | 62 | 150 | 5.0 | 6.0 | 0.00 | 0.00 | 0.00 | 39 | 990.3 |
| 20260904031506 | 62 | 171 | 1.0 | 2.0 | 0.00 | 0.00 | 0.00 | 30 | 990.0 |
| 20260904025503 | 62 | 188 | 2.0 | 3.0 | 0.00 | 0.00 | 0.00 | 32 | 989.0 |
| 20260904014007 | 65 | 164 | 3.0 | 5.0 | 0.00 | 0.00 | 0.00 | 31 | 989.8 |
| 20260904005508 | 63 | 165 | 5.0 | 6.0 | 0.00 | 0.00 | 0.00 | 32 | 989.0 |
| 20260904003506 | 63 | 175 | 4.0 | 6.0 | 0.00 | 0.00 | 0.00 | 32 | 989.8 |
| 20260904002004 | 62 | 179 | 6.0 | 7.0 | 0.00 | 0.00 | 0.00 | 33 | 990.1 |
| 20260904000008 | 62 | 172 | 6.0 | 10.0 | 0.00 | 0.00 | 0.00 | 35 | 988.9 |
| 20260903234006 | 63 | 190 | 3.0 | 5.0 | 0.00 | 0.00 | 0.00 | 31 | 989.2 |
| 20260903232504 | 66 | 139 | 3.0 | 4.0 | 0.00 | 0.00 | 0.00 | 27 | 990.8 |
| 20260903231503 | 66 | 142 | 3.0 | 6.0 | 0.00 | 0.00 | 0.00 | 26 | 990.2 |
| 20260903231008 | 66 | 31 | 2.0 | 6.0 | 0.00 | 0.00 | 0.00 | 28 | 989.1 |
| 20260903225507 | 67 | 171 | 4.0 | 5.0 | 0.00 | 0.00 | 0.00 | 24 | 988.8 |
| 20260903224505 | 68 | 148 | 2.0 | 5.0 | 0.00 | 0.00 | 0.00 | 23 | 988.6 |
| 20260903221508 | 69 | 40 | 2.0 | 3.0 | 0.00 | 0.00 | 0.00 | 20 | 989.6 |
| 20260903221031 | 69 | 156 | 2.0 | 3.0 | 0.00 | 0.00 | 0.00 | 21 | 990.0 |
| 20260903215506 | 69 | 75 | 2.0 | 3.0 | 0.00 | 0.00 | 0.00 | 21 | 990.0 |